Location: Pinon Hills
(34.4429°N, 117.6403°W)
Time: 00:24:39
(UTC-07:00)

Amateur Radio Satellites - All Passes

Search period start: 30 July 2016 23:54
Search period end: 31 July 2016 23:54
Location: Pinon Hills, 34.4429°N, 117.6403°W

Satellite Date Start Highest point End Downlink Frequencies (MHz)
Time Altitude Azimuth
SPROUT 30 Jul 23:55:18 23:59:11 36° 73° (ENE) 00:03:07 437.525
TIGRISAT 30 Jul 23:56:21 00:00:19 30° 289° (WNW) 00:04:13 435.000
JUGNU 31 Jul 00:05:22 00:08:51 16° 170° (S) 00:12:20 437.505
Cosmos 2504 31 Jul 00:12:00 00:14:33 12° 283° (WNW) 00:17:03 435.465 / 435.565
UNISAT 6 31 Jul 00:14:52 00:18:00 18° 292° (WNW) 00:21:04 437.425
CUBEBUG 1 31 Jul 00:20:47 00:24:48 39° 262° (W) 00:28:52 437.445
BUGSAT 1 31 Jul 00:28:16 00:32:09 33° 98° (E) 00:35:58 437.445
NANOSAT C BR1 31 Jul 00:29:01 00:33:18 87° 280° (W) 00:37:32 145.865
VELOX 1 31 Jul 00:30:53 00:34:53 35° 262° (W) 00:38:56 145.980
DUCHIFAT 1 31 Jul 00:31:10 00:35:27 88° 283° (WNW) 00:39:41 145.980
ESTCUBE 1 31 Jul 00:33:23 00:36:38 20° 265° (W) 00:39:55 437.505/2401.250
TISAT 1 31 Jul 00:35:45 00:39:02 23° 70° (ENE) 00:42:21 437.305
QB50P1 31 Jul 00:54:13 00:58:14 40° 287° (WNW) 01:02:12 145.935-145.965
POPSAT HIP 1 31 Jul 01:01:14 01:05:06 34° 288° (WNW) 01:08:56 437.405
DX 1 31 Jul 01:01:25 01:04:46 22° 264° (W) 01:08:09 434.975-435.025
SWISSCUBE 31 Jul 01:04:46 01:05:39 10° 63° (ENE) 01:06:33 437.505
Cosmos 2499 31 Jul 01:05:12 01:07:06 11° 63° (ENE) 01:08:59 435.465 / 435.565
UKube-1 31 Jul 01:06:42 01:10:11 24° 263° (W) 01:13:42 .
JAS-2 31 Jul 01:11:50 01:17:20 73° 103° (ESE) 01:23:27 435.910
AIST 1 31 Jul 01:17:28 01:20:43 21° 271° (W) 01:23:58
GONETS M04 31 Jul 01:20:47 01:28:09 29° 73° (ENE) 01:35:29
BEESAT 31 Jul 01:23:30 01:26:21 16° 66° (ENE) 01:29:10 436.000
QB50P2 31 Jul 01:24:07 01:27:00 18° 292° (WNW) 01:29:53 145.880/145.840
POLYITAN 1 31 Jul 01:26:47 01:29:38 18° 292° (WNW) 01:32:28 437.675
SPROUT 31 Jul 01:32:41 01:35:13 15° 266° (W) 01:37:47 437.525
Oscar 19 31 Jul 01:44:38 01:49:26 37° 98° (E) 01:54:12 437.125/150
ITUPSAT 1 31 Jul 01:48:07 01:52:11 28° 70° (ENE) 01:56:15 437.325
JUGNU 31 Jul 01:53:01 01:57:11 20° 180° (S) 02:01:20 437.505
Gurwin Techsat 1B 31 Jul 02:00:39 02:04:48 23° 95° (E) 02:08:55 435.225
BUGSAT 1 31 Jul 02:04:26 02:07:13 17° 292° (WNW) 02:09:59 437.445
ISS 31 Jul 02:10:22 02:13:00 22° 34° (NE) 02:15:37 145.825
TISAT 1 31 Jul 02:11:09 02:14:33 24° 264° (W) 02:17:58 437.305
SRMSAT 31 Jul 02:30:18 02:33:50 16° 171° (S) 02:37:22 437.500
BEESAT 3 31 Jul 02:36:29 02:40:22 51° 59° (ENE) 02:44:11 437.485
SWISSCUBE 31 Jul 02:38:01 02:42:47 72° 258° (WSW) 02:47:35 437.505
BEESAT 2 31 Jul 02:51:30 02:55:15 38° 57° (ENE) 02:58:59 435.950
PCSat 31 Jul 02:51:52 02:55:27 18° 51° (NE) 02:59:02 145.827
Cosmos 2499 31 Jul 02:53:54 03:01:33 82° 84° (E) 03:08:42 435.465 / 435.565
BEESAT 31 Jul 02:59:06 03:03:42 47° 260° (W) 03:08:19 436.000
JAS-2 31 Jul 02:59:37 03:01:56 13° 295° (WNW) 03:04:20 435.910
MOZHAYETS 4 31 Jul 03:02:15 03:05:37 20° 69° (ENE) 03:08:59
GONETS M04 31 Jul 03:16:47 03:25:16 54° 270° (W) 03:33:46
CUSAT 1 31 Jul 03:18:00 03:22:03 78° 98° (E) 03:25:13 437.405
Oscar 19 31 Jul 03:24:32 03:28:29 23° 293° (WNW) 03:32:26 437.125/150
ITUPSAT 1 31 Jul 03:26:00 03:29:55 25° 264° (W) 03:33:52 437.325
ITAMSAT 1 31 Jul 03:28:23 03:33:27 52° 100° (E) 03:38:27 435.822/435.867
KKS-1 31 Jul 03:31:40 03:35:46 39° 73° (ENE) 03:39:56 437.445
AO-7 31 Jul 03:38:21 03:45:33 31° 98° (E) 03:52:38 29.400- 29.500
Gurwin Techsat 1B 31 Jul 03:39:56 03:44:47 37° 289° (WNW) 03:49:37 435.225
JUGNU 31 Jul 03:42:05 03:45:30 16° 190° (S) 03:48:55 437.505
ISS 31 Jul 03:46:33 03:49:26 29° 229° (SW) 03:52:18 145.825
STARS 31 Jul 03:58:17 04:02:19 37° 72° (ENE) 04:06:23 437.465
BEESAT 3 31 Jul 04:17:22 04:17:32 10° 253° (WSW) 04:17:41 437.485
SRMSAT 31 Jul 04:18:13 04:22:19 19° 181° (S) 04:26:24 437.500
RS-15 31 Jul 04:18:15 04:25:07 18° 98° (E) 04:32:08 29.354- 29.394
DANDE 31 Jul 04:20:58 04:26:23 58° 278° (W) 04:30:24 436.750
BEESAT 2 31 Jul 04:30:36 04:32:43 14° 251° (WSW) 04:34:50 435.950
CUBESAT XI-V 31 Jul 04:33:26 04:36:58 22° 69° (ENE) 04:40:30 437.345
PCSat 31 Jul 04:33:55 04:39:15 60° 247° (WSW) 04:44:33 145.827
MOZHAYETS 4 31 Jul 04:38:21 04:42:31 33° 262° (W) 04:46:42
O/OREOS (USA 219) 31 Jul 04:49:15 04:51:09 12° 58° (ENE) 04:53:04 437.305
Cosmos 2499 31 Jul 04:50:15 04:53:25 13° 281° (WNW) 04:56:32 435.465 / 435.565
HORYU 2 31 Jul 04:51:04 04:53:54 16° 94° (E) 04:56:42 437.375
ITAMSAT 1 31 Jul 05:09:17 05:12:26 17° 295° (WNW) 05:15:36 435.822/435.867
KKS-1 31 Jul 05:09:51 05:12:28 15° 266° (W) 05:15:06 437.445
AIST 2 31 Jul 05:29:23 05:33:34 87° 246° (WSW) 05:37:44 435.215
BRITE-PL 31 Jul 05:30:19 05:33:13 15° 94° (E) 05:36:13 437.365/2234.400
AO-7 31 Jul 05:30:29 05:38:26 51° 294° (WNW) 05:46:21 29.400- 29.500
STARS 31 Jul 05:36:04 05:38:46 16° 266° (W) 05:41:27 437.465
NOAA 15 31 Jul 05:46:20 05:49:15 15° 93° (E) 05:52:10 137.62
SRMSAT 31 Jul 06:07:33 06:10:46 15° 191° (S) 06:13:59 437.500
GOMX 1 31 Jul 06:09:10 06:12:39 18° 93° (E) 06:16:12 467.674
CUBESAT XI-V 31 Jul 06:10:09 06:14:09 29° 263° (W) 06:18:10 437.345
STRAND 1 31 Jul 06:14:19 06:17:36 17° 66° (ENE) 06:20:52 437.568
RS-15 31 Jul 06:24:18 06:35:40 88° 117° (ESE) 06:47:45 29.354- 29.394
HORYU 2 31 Jul 06:26:26 06:30:32 36° 288° (WNW) 06:34:35 437.375
O/OREOS (USA 219) 31 Jul 06:26:27 06:30:54 57° 254° (WSW) 06:35:22 437.305
SO-50 31 Jul 06:44:44 06:49:31 58° 116° (ESE) 06:54:17 436.795
Cosmos 2491 31 Jul 06:52:16 06:56:28 14° 65° (ENE) 07:00:38 435.465 / 435.565
NOAA 18 31 Jul 06:53:33 06:58:58 52° 101° (E) 07:04:18 137.9125
Cubesat XI-IV 31 Jul 06:56:48 07:02:05 58° 101° (E) 07:07:18 437.490
BRITE-PL 31 Jul 07:06:53 07:11:50 56° 285° (WNW) 07:17:07 437.365/2234.400
DOVE 4 31 Jul 07:15:54 07:20:48 38° 98° (E) 07:25:42 437.250
LilacSat-2 31 Jul 07:17:15 07:21:05 65° 283° (WNW) 07:24:51 437.200
CUTE-I 31 Jul 07:18:57 07:24:17 84° 285° (WNW) 07:29:36 437.470
NOAA 15 31 Jul 07:24:09 07:29:18 55° 287° (WNW) 07:34:26 137.62
GOMX 1 31 Jul 07:45:48 07:50:50 50° 286° (WNW) 07:56:05 467.674
STRAND 1 31 Jul 07:51:22 07:56:19 49° 260° (W) 08:01:19 437.568
HO-68 31 Jul 07:59:16 08:05:24 30° 97° (E) 08:11:29 435.675
YUBILEINY 31 Jul 08:13:31 08:20:05 24° 82° (E) 08:26:40 435.215
SO-50 31 Jul 08:27:13 08:30:20 17° 312° (NW) 08:33:27 436.795
CANX-2 31 Jul 08:30:28 08:34:36 55° 100° (E) 08:38:42 2200.000
CINEMA 3 31 Jul 08:31:10 08:36:10 66° 100° (E) 08:41:01 145.822/145.860
NOAA 18 31 Jul 08:35:27 08:39:08 18° 296° (WNW) 08:42:48 137.9125
PRISM 31 Jul 08:36:59 08:41:00 64° 75° (ENE) 08:45:01 437.425
UWE-3 31 Jul 08:37:30 08:39:15 12° 91° (E) 08:40:58 435.000/436.395/437.385
Cubesat XI-IV 31 Jul 08:38:33 08:41:36 16° 296° (WNW) 08:44:38 437.490
RS-15 31 Jul 08:40:22 08:49:51 28° 322° (NW) 08:59:48 29.354- 29.394
CUTE 1.7 + AOD 2 31 Jul 08:42:55 08:47:06 68° 100° (E) 08:51:16 437.475
Cosmos 2491 31 Jul 08:45:46 08:54:34 84° 84° (E) 09:03:23 435.465 / 435.565
DOVE 4 31 Jul 08:54:07 08:58:11 23° 291° (WNW) 09:02:17 437.250
Cosmos 2504 31 Jul 08:58:45 09:02:58 14° 78° (ENE) 09:07:09 435.465 / 435.565
Oscar 11 31 Jul 08:59:27 09:01:35 13° 93° (E) 09:03:42 145.826/435.025
CUBEBUG 2 31 Jul 09:07:17 09:11:44 43° 98° (E) 09:16:00 437.445
SEEDS 31 Jul 09:13:30 09:17:39 72° 282° (WNW) 09:21:46 437.485
COMPASS 1 31 Jul 09:16:27 09:20:35 82° 100° (E) 09:24:42 437.405
TIGRISAT 31 Jul 09:16:29 09:18:41 13° 66° (ENE) 09:20:55 435.000
UNISAT 6 31 Jul 09:32:57 09:36:29 22° 69° (ENE) 09:40:03 437.425
AAUSAT CUBESAT 2 31 Jul 09:40:07 09:44:11 64° 283° (WNW) 09:48:14 437.432
HO-68 31 Jul 09:46:26 09:53:10 45° 292° (WNW) 09:59:54 435.675
FUNcube-1 31 Jul 09:57:42 10:02:06 64° 101° (E) 10:06:21 145.935
ZACube-1 31 Jul 10:01:17 10:05:44 77° 102° (ESE) 10:10:02 437.345
YUBILEINY 31 Jul 10:07:27 10:16:07 62° 280° (W) 10:24:52 435.215
CANX-2 31 Jul 10:09:20 10:09:56 10° 294° (WNW) 10:10:32 2200.000
ANTELSAT 31 Jul 10:10:03 10:14:34 55° 75° (ENE) 10:19:11 437.575/2403.000
CINEMA 3 31 Jul 10:10:34 10:12:38 13° 296° (WNW) 10:14:41 145.822/145.860
UWE-3 31 Jul 10:11:35 10:15:59 49° 286° (WNW) 10:20:14 435.000/436.395/437.385
Oscar 11 31 Jul 10:33:49 10:37:52 41° 287° (WNW) 10:41:53 145.826/435.025
HUMSAT D 31 Jul 10:34:43 10:38:29 34° 97° (E) 10:42:13 437.325/437.525
M-CUBED/EXP-1 PRIME 31 Jul 10:36:15 10:40:42 40° 103° (ESE) 10:45:00 437.505
QB50P2 31 Jul 10:37:49 10:40:25 16° 68° (ENE) 10:43:02 145.880/145.840
POLYITAN 1 31 Jul 10:40:22 10:43:02 16° 68° (ENE) 10:45:43 437.675
CUBEBUG 2 31 Jul 10:45:11 10:47:54 16° 294° (WNW) 10:50:34 437.445
Cosmos 2491 31 Jul 10:45:22 10:50:12 16° 281° (W) 10:55:02 435.465 / 435.565
Cosmos 2504 31 Jul 10:46:09 10:55:01 86° 96° (E) 11:03:52 435.465 / 435.565
TIGRISAT 31 Jul 10:50:19 10:54:51 54° 260° (W) 10:59:28 435.000
AUBIESAT-1 31 Jul 10:58:04 11:02:40 58° 105° (ESE) 11:07:05 437.475
DELFI C3 31 Jul 10:58:13 11:02:00 46° 285° (WNW) 11:05:47 145.870
RS-15 31 Jul 11:03:53 11:08:44 13° 357° (N) 11:13:39 29.354- 29.394
UNISAT 6 31 Jul 11:08:51 11:12:57 31° 263° (W) 11:17:09 437.425
BUGSAT 1 31 Jul 11:15:49 11:18:08 15° 67° (ENE) 11:20:28 437.445
NANOSAT C BR1 31 Jul 11:17:27 11:21:25 41° 73° (ENE) 11:25:26 145.865
DUCHIFAT 1 31 Jul 11:19:21 11:23:18 40° 73° (ENE) 11:27:18 145.980
JAS-2 31 Jul 11:22:35 11:26:37 20° 67° (ENE) 11:30:23 435.910
AISAT 31 Jul 11:34:36 11:37:09 15° 94° (E) 11:39:41 437.250
QB50P1 31 Jul 11:42:25 11:46:40 89° 260° (W) 11:50:58 145.935-145.965
POPSAT HIP 1 31 Jul 11:49:22 11:53:36 75° 258° (WSW) 11:57:53 437.405
ANTELSAT 31 Jul 11:49:51 11:51:34 12° 269° (W) 11:53:18 437.575/2403.000
AIST 1 31 Jul 12:06:04 12:08:53 18° 88° (E) 12:11:43
HUMSAT D 31 Jul 12:11:19 12:13:48 16° 292° (WNW) 12:16:15 437.325/437.525
M-CUBED/EXP-1 PRIME 31 Jul 12:11:31 12:14:50 19° 297° (WNW) 12:18:06 437.505
QB50P2 31 Jul 12:11:58 12:15:53 36° 262° (W) 12:19:50 145.880/145.840
CUBEBUG 1 31 Jul 12:12:28 12:16:45 47° 100° (E) 12:21:00 437.445
POLYITAN 1 31 Jul 12:14:36 12:18:31 35° 262° (W) 12:22:28 437.675
AO-85 31 Jul 12:19:28 12:24:44 55° 115° (ESE) 12:29:51 145.980
VELOX 1 31 Jul 12:23:59 12:28:21 54° 100° (E) 12:32:42 145.980
ESTCUBE 1 31 Jul 12:27:52 12:32:21 72° 284° (WNW) 12:36:49 437.505/2401.250
AUBIESAT-1 31 Jul 12:34:17 12:36:33 14° 300° (WNW) 12:38:46 437.475
50 SAT 31 Jul 12:36:10 12:39:46 89° 290° (WNW) 12:43:22 437.505
Cosmos 2504 31 Jul 12:43:46 12:49:21 18° 292° (WNW) 12:54:56 435.465 / 435.565
BUGSAT 1 31 Jul 12:49:22 12:53:09 36° 262° (W) 12:56:59 437.445
DX 1 31 Jul 12:51:50 12:56:13 82° 103° (ESE) 13:00:36 434.975-435.025
NANOSAT C BR1 31 Jul 12:55:17 12:57:18 13° 267° (W) 12:59:19 145.865
UKube-1 31 Jul 12:56:15 13:00:36 71° 103° (ESE) 13:04:53 .
DUCHIFAT 1 31 Jul 12:57:05 12:59:08 13° 267° (W) 13:01:14 145.980
Oscar 19 31 Jul 12:58:03 13:02:44 37° 71° (ENE) 13:07:25 437.125/150
JAS-2 31 Jul 13:05:40 13:11:26 47° 260° (W) 13:16:40 435.910
AISAT 31 Jul 13:09:33 13:13:45 41° 287° (WNW) 13:17:55 437.250
Gurwin Techsat 1B 31 Jul 13:18:17 13:22:39 26° 68° (ENE) 13:27:00 435.225
RS-15 31 Jul 13:18:55 13:28:14 24° 34° (NE) 13:37:30 29.354- 29.394
SPROUT 31 Jul 13:20:05 13:24:23 69° 284° (WNW) 13:28:39 437.525
Cosmos 2499 31 Jul 13:38:10 13:40:49 12° 78° (ENE) 13:43:27 435.465 / 435.565
AIST 1 31 Jul 13:42:33 13:46:12 28° 282° (WNW) 13:49:54
CUBEBUG 1 31 Jul 13:50:27 13:52:35 13° 294° (WNW) 13:54:44 437.445
CUSAT 1 31 Jul 13:52:41 13:55:49 28° 81° (E) 13:59:42 437.405
TISAT 1 31 Jul 13:57:33 14:01:48 66° 102° (ESE) 14:06:00 437.305
AO-85 31 Jul 14:01:37 14:05:30 20° 310° (NW) 14:09:16 145.980
VELOX 1 31 Jul 14:02:35 14:04:18 12° 295° (WNW) 14:06:01 145.980
PHONESAT 2.4 31 Jul 14:16:37 14:19:27 37° 150° (SSE) 14:22:20 2401.200-2431.200
GONETS M04 31 Jul 14:17:21 14:25:01 37° 86° (E) 14:32:42
AO-7 31 Jul 14:33:40 14:40:49 33° 62° (ENE) 14:47:58 29.400- 29.500
Oscar 19 31 Jul 14:38:18 14:42:06 21° 265° (W) 14:45:56 437.125/150
SWISSCUBE 31 Jul 14:41:58 14:46:24 37° 99° (E) 14:50:46 437.505
ITAMSAT 1 31 Jul 14:42:40 14:47:46 56° 73° (ENE) 14:52:52 435.822/435.867
Gurwin Techsat 1B 31 Jul 14:57:41 15:02:25 33° 263° (W) 15:07:10 435.225
DANDE 31 Jul 15:02:03 15:04:51 55° 82° (E) 15:08:16 436.750
BEESAT 31 Jul 15:02:33 15:07:15 58° 101° (E) 15:11:55 436.000
SO-50 31 Jul 15:20:30 15:23:56 20° 50° (NE) 15:27:17 436.795
Cosmos 2499 31 Jul 15:23:40 15:32:31 76° 94° (E) 15:41:09 435.465 / 435.565
ITUPSAT 1 31 Jul 15:29:00 15:33:45 74° 284° (WNW) 15:38:28 437.325
RS-15 31 Jul 15:30:47 15:43:14 76° 60° (ENE) 15:55:22 29.354- 29.394
CUSAT 1 31 Jul 15:35:49 15:37:43 13° 265° (W) 15:39:51 437.405
HORYU 2 31 Jul 15:47:42 15:48:41 11° 64° (ENE) 15:49:40 437.375
PHONESAT 2.4 31 Jul 15:53:01 15:55:56 40° 344° (NNW) 15:58:52 2401.200-2431.200
GONETS M04 31 Jul 16:13:33 16:21:35 42° 283° (WNW) 16:29:44
SWISSCUBE 31 Jul 16:20:35 16:23:52 19° 293° (WNW) 16:27:08 437.505
BEESAT 3 31 Jul 16:24:29 16:27:23 20° 111° (ESE) 16:30:17 437.485
ITAMSAT 1 31 Jul 16:24:43 16:27:31 14° 267° (W) 16:30:19 435.822/435.867
AO-7 31 Jul 16:25:08 16:33:11 51° 258° (WSW) 16:41:18 29.400- 29.500
MOZHAYETS 4 31 Jul 16:36:21 16:40:55 75° 102° (ESE) 16:45:26
BEESAT 2 31 Jul 16:41:19 16:43:43 16° 109° (ESE) 16:46:08 435.950
BEESAT 31 Jul 16:42:24 16:44:30 13° 295° (WNW) 16:46:34 436.000
SO-50 31 Jul 17:00:18 17:04:32 38° 247° (WSW) 17:08:38 436.795
CUTE-I 31 Jul 17:00:53 17:03:04 13° 63° (ENE) 17:05:16 437.470
KKS-1 31 Jul 17:02:09 17:06:35 61° 285° (WNW) 17:11:00 437.445
NOAA 15 31 Jul 17:03:01 17:06:27 18° 65° (ENE) 17:09:52 137.62
Cosmos 2499 31 Jul 17:20:08 17:26:19 21° 290° (WNW) 17:32:26 435.465 / 435.565
HORYU 2 31 Jul 17:20:13 17:24:38 63° 258° (WSW) 17:29:07 437.375
STARS 31 Jul 17:26:57 17:31:22 67° 284° (WNW) 17:35:45 437.465
PCSat 31 Jul 17:29:20 17:33:57 29° 108° (ESE) 17:38:35 145.827
PHONESAT 2.4 31 Jul 17:30:15 17:32:52 25° 1° (N) 17:35:28 2401.200-2431.200
RS-15 31 Jul 17:45:00 17:54:29 27° 258° (WSW) 18:03:50 29.354- 29.394
LilacSat-2 31 Jul 17:55:36 17:59:07 34° 73° (ENE) 18:02:39 437.200
BEESAT 3 31 Jul 18:01:32 18:04:51 26° 305° (NW) 18:08:13 437.485
CUBESAT XI-V 31 Jul 18:09:22 18:14:00 88° 102° (ESE) 18:18:39 437.345
BRITE-PL 31 Jul 18:14:59 18:19:04 66° 258° (WSW) 18:23:15 437.365/2234.400
Cubesat XI-IV 31 Jul 18:15:06 18:20:26 68° 74° (ENE) 18:25:47 437.490
NOAA 18 31 Jul 18:16:09 18:21:38 71° 74° (ENE) 18:27:11 137.9125
BEESAT 2 31 Jul 18:17:39 18:21:15 33° 304° (NW) 18:24:52 435.950
DOVE 4 31 Jul 18:18:47 18:22:08 22° 69° (ENE) 18:25:38 437.250
HO-68 31 Jul 18:26:27 18:30:27 16° 58° (ENE) 18:34:27 435.675
CUTE-I 31 Jul 18:37:04 18:42:26 74° 258° (WSW) 18:47:49 437.470
NOAA 15 31 Jul 18:40:45 18:45:48 49° 260° (W) 18:50:52 137.62
ISS 31 Jul 18:46:48 18:49:52 41° 132° (SE) 18:52:57 145.825
GOMX 1 31 Jul 18:50:47 18:54:56 63° 260° (W) 18:59:17 467.674
O/OREOS (USA 219) 31 Jul 18:56:43 19:00:19 24° 102° (ESE) 19:03:56 437.305
PHONESAT 2.4 31 Jul 19:06:46 19:09:45 45° 18° (NNE) 19:12:43 2401.200-2431.200
PCSat 31 Jul 19:12:23 19:17:12 32° 303° (WNW) 19:22:03 145.827
CANX-2 31 Jul 19:20:02 19:23:31 25° 71° (ENE) 19:27:01 2200.000
AIST 2 31 Jul 19:23:27 19:27:20 45° 114° (ESE) 19:31:17 435.215
CINEMA 3 31 Jul 19:29:04 19:33:17 37° 72° (ENE) 19:37:41 145.822/145.860
LilacSat-2 31 Jul 19:31:39 19:33:29 13° 267° (W) 19:35:21 437.200
CUTE 1.7 + AOD 2 31 Jul 19:32:10 19:35:53 30° 72° (ENE) 19:39:35 437.475
Cosmos 2491 31 Jul 19:49:35 19:54:58 18° 80° (E) 20:00:20 435.465 / 435.565
DOVE 4 31 Jul 19:56:00 19:59:40 27° 265° (W) 20:03:31 437.250
Cubesat XI-IV 31 Jul 19:58:50 20:00:54 12° 268° (W) 20:02:58 437.490
NOAA 18 31 Jul 20:00:33 20:02:44 12° 268° (W) 20:04:55 137.9125
SEEDS 31 Jul 20:01:22 20:05:24 46° 74° (ENE) 20:09:26 437.485
CUBEBUG 2 31 Jul 20:01:52 20:05:37 25° 70° (ENE) 20:09:26 437.445
COMPASS 1 31 Jul 20:03:41 20:07:25 33° 73° (ENE) 20:11:10 437.405
STRAND 1 31 Jul 20:05:16 20:10:23 76° 102° (ESE) 20:15:28 437.568
HO-68 31 Jul 20:10:01 20:17:12 87° 252° (WSW) 20:24:27 435.675
YUBILEINY 31 Jul 20:22:04 20:30:46 57° 80° (E) 20:39:20 435.215
ISS 31 Jul 20:24:06 20:26:25 18° 328° (NNW) 20:28:46 145.825
PRISM 31 Jul 20:24:17 20:25:33 11° 93° (E) 20:26:49 437.425
AAUSAT CUBESAT 2 31 Jul 20:26:27 20:30:27 48° 75° (ENE) 20:34:27 437.432
O/OREOS (USA 219) 31 Jul 20:35:56 20:39:35 25° 297° (WNW) 20:43:17 437.305
PHONESAT 2.4 31 Jul 20:43:25 20:46:09 30° 212° (SSW) 20:48:54 2401.200-2431.200
Cosmos 2504 31 Jul 20:45:28 20:51:32 24° 70° (ENE) 20:57:16 435.465 / 435.565
FUNcube-1 31 Jul 20:49:22 20:53:25 33° 72° (ENE) 20:57:30 145.935
ZACube-1 31 Jul 20:53:05 20:57:18 38° 73° (ENE) 21:01:33 437.345
CANX-2 31 Jul 20:55:57 20:59:17 22° 265° (W) 21:02:38 2200.000
AO-85 31 Jul 20:56:28 20:59:10 16° 48° (NE) 21:01:45 145.980
AIST 2 31 Jul 21:03:39 21:06:03 15° 310° (NW) 21:08:26 435.215
UWE-3 31 Jul 21:04:01 21:08:37 83° 75° (ENE) 21:13:18 435.000/436.395/437.385
CINEMA 3 31 Jul 21:07:29 21:10:32 18° 267° (W) 21:13:41 145.822/145.860
CUTE 1.7 + AOD 2 31 Jul 21:08:44 21:11:42 18° 266° (W) 21:14:41 437.475
M-CUBED/EXP-1 PRIME 31 Jul 21:19:46 21:22:58 25° 65° (ENE) 21:26:24 437.505
HUMSAT D 31 Jul 21:23:18 21:26:01 17° 68° (ENE) 21:28:44 437.325/437.525
Oscar 11 31 Jul 21:24:17 21:28:38 88° 250° (WSW) 21:33:00 145.826/435.025
CUBEBUG 2 31 Jul 21:38:09 21:42:04 27° 264° (W) 21:46:05 437.445
SEEDS 31 Jul 21:39:54 21:41:18 11° 268° (W) 21:42:41 437.485
DELFI C3 31 Jul 21:40:07 21:44:00 56° 75° (ENE) 21:47:52 145.870
COMPASS 1 31 Jul 21:40:28 21:43:01 16° 266° (W) 21:45:35 437.405
AUBIESAT-1 31 Jul 21:40:48 21:44:22 36° 67° (ENE) 21:48:14 437.475
Cosmos 2491 31 Jul 21:42:02 21:50:43 77° 277° (W) 21:59:28 435.465 / 435.565
STRAND 1 31 Jul 21:47:31 21:48:51 11° 298° (WNW) 21:50:12 437.568
PRISM 31 Jul 21:57:07 22:01:02 45° 286° (WNW) 22:04:58 437.425
HO-68 31 Jul 22:03:19 22:05:42 12° 270° (W) 22:08:06 435.675
AAUSAT CUBESAT 2 31 Jul 22:05:28 22:06:09 10° 268° (W) 22:06:51 437.432
ANTELSAT 31 Jul 22:06:58 22:09:36 15° 93° (E) 22:12:13 437.575/2403.000
YUBILEINY 31 Jul 22:20:01 22:26:53 26° 277° (W) 22:33:43 435.215
FUNcube-1 31 Jul 22:26:23 22:29:40 20° 266° (W) 22:32:59 145.935
ZACube-1 31 Jul 22:30:47 22:33:40 17° 267° (W) 22:36:36 437.345
AO-85 31 Jul 22:35:53 22:39:51 40° 247° (WSW) 22:43:33 145.980
Cosmos 2504 31 Jul 22:37:44 22:45:21 55° 270° (W) 22:52:29 435.465 / 435.565
TIGRISAT 31 Jul 22:45:41 22:50:00 41° 98° (E) 22:54:11 435.000
M-CUBED/EXP-1 PRIME 31 Jul 22:54:34 22:57:27 20° 262° (W) 23:00:31 437.505
HUMSAT D 31 Jul 22:57:22 23:01:18 35° 262° (W) 23:05:16 437.325/437.525
UNISAT 6 31 Jul 23:03:42 23:08:16 73° 101° (E) 23:12:42 437.425
CUBEBUG 1 31 Jul 23:05:24 23:08:54 25° 70° (ENE) 23:12:26 437.445
50 SAT 31 Jul 23:10:43 23:13:33 22° 72° (ENE) 23:16:25 437.505
AUBIESAT-1 31 Jul 23:16:54 23:19:01 14° 264° (W) 23:21:11 437.475
VELOX 1 31 Jul 23:18:00 23:21:49 30° 71° (ENE) 23:25:40 145.980
ESTCUBE 1 31 Jul 23:23:32 23:27:58 66° 76° (ENE) 23:32:25 437.505/2401.250
QB50P1 31 Jul 23:31:39 23:34:43 19° 95° (E) 23:37:46 145.935-145.965
POPSAT HIP 1 31 Jul 23:38:22 23:41:46 23° 96° (E) 23:45:07 437.405
ANTELSAT 31 Jul 23:42:13 23:46:29 40° 287° (WNW) 23:50:38 437.575/2403.000
DX 1 31 Jul 23:43:45 23:47:50 43° 73° (ENE) 23:51:56 434.975-435.025
Cosmos 2491 31 Jul 23:46:01 23:49:01 12° 296° (WNW) 23:52:02 435.465 / 435.565
